Date String (YYYY-MM-DD hh:mm:ss) UTC,Instrument flags,Ambient pressure (hPa),Sample flow (lpm),Bypass flow (lpm),Sample temperature (°C),Ambient temperature (°C),ASC tube jacket temperature (°C),LED temperature (°C),Box temperature (°C),Sample RH (%),Span deviation,Mass concentration (μg/m³),Mass concentration (μg/m³),Mass concentration (μg/m³)
DateTimeUTC,F1_M11,P_M11,Q1_M11,Q2_M11,T1_M11,T2_M11,T3_M11,T4_M11,T5_M11,U1_M11,ZSPAN_M11,X0_M11,X2_M11,X1_M11
2021-12-25 14:00:00,,0816.0,4.99,0.00,21.9,21.3,00.0,31.0,23.6,12.9,0000.0,0002.49,0000.62,0000.37
2021-12-25 14:01:00,,0816.0,5.00,0.00,21.9,21.2,00.0,31.0,23.6,12.9,0000.0,0002.41,0000.63,0000.37
2021-12-25 14:02:00,,0816.0,4.99,0.00,21.9,21.2,00.0,31.0,23.6,12.9,0000.0,0003.22,0000.62,0000.36
2021-12-25 14:03:00,,0816.0,5.01,0.00,21.9,21.2,00.0,31.0,23.6,12.8,0000.0,0004.18,0000.62,0000.35
2021-12-25 14:04:00,,0815.9,5.00,0.00,21.9,21.2,00.0,31.0,23.6,12.5,0000.0,0003.73,0000.63,0000.35
2021-12-25 14:05:00,,0815.9,5.01,0.00,21.9,21.2,00.0,31.0,23.5,12.3,0000.0,0002.76,0000.60,0000.34
2021-12-25 14:06:00,,0816.0,4.99,0.00,21.9,21.2,00.0,31.0,23.5,12.2,0000.0,0002.69,0000.57,0000.32
2021-12-25 14:07:00,,0816.1,5.00,0.00,21.8,21.1,00.0,31.0,23.4,12.3,0000.0,0002.67,0000.56,0000.33
2021-12-25 14:08:00,,0816.1,5.00,0.00,21.8,21.1,00.0,30.9,23.4,12.5,0000.0,0002.73,0000.57,0000.33
2021-12-25 14:09:00,,0816.0,4.98,0.00,21.8,21.0,00.0,30.9,23.4,12.3,0000.0,0002.67,0000.54,0000.33
2021-12-25 14:10:00,,0816.0,5.02,0.00,21.7,21.0,00.0,30.9,23.3,12.3,0000.0,0003.79,0000.51,0000.33
2021-12-25 14:11:00,,0816.0,4.99,0.00,21.7,21.0,00.0,30.9,23.3,12.2,0000.0,0004.35,0000.50,0000.33
2021-12-25 14:12:00,,0816.0,5.00,0.00,21.7,21.0,00.0,30.9,23.3,12.6,0000.0,0004.33,0000.48,0000.33
2021-12-25 14:13:00,,0816.0,5.00,0.00,21.7,21.0,00.0,30.8,23.2,12.6,0000.0,0003.57,0000.49,0000.33
2021-12-25 14:14:00,,0816.0,4.99,0.00,21.7,21.0,00.0,30.8,23.3,12.5,0000.0,0002.94,0000.51,0000.33
2021-12-25 14:15:00,,0816.0,5.01,0.00,21.7,21.5,00.0,30.9,23.5,12.4,0000.0,0002.89,0000.50,0000.34
2021-12-25 14:16:00,,0816.0,5.00,0.00,21.9,22.3,00.0,30.9,23.8,11.9,0000.0,0002.89,0000.49,0000.34
2021-12-25 14:17:00,,0816.1,4.99,0.00,22.0,22.8,00.0,30.9,24.0,11.7,0000.0,0003.89,0000.52,0000.36
2021-12-25 14:18:00,,0816.0,5.00,0.00,22.1,22.5,00.0,30.9,24.0,11.8,0000.0,0004.78,0000.54,0000.37
2021-12-25 14:19:00,,0816.0,5.01,0.00,22.0,22.2,00.0,31.0,23.9,11.7,0000.0,0004.75,0000.53,0000.37
2021-12-25 14:20:00,,0816.0,5.00,0.00,22.0,22.0,00.0,31.0,23.8,11.8,0000.0,0004.74,0000.53,0000.38
2021-12-25 14:21:00,,0816.0,5.00,0.00,22.0,21.8,00.0,31.0,23.7,11.9,0000.0,0003.93,0000.54,0000.38
2021-12-25 14:22:00,,0816.0,5.01,0.00,22.0,21.6,00.0,31.0,23.6,11.5,0000.0,0002.95,0000.53,0000.38
2021-12-25 14:23:00,,0816.0,4.99,0.00,21.9,21.5,00.0,30.9,23.6,11.6,0000.0,0002.94,0000.54,0000.38
2021-12-25 14:24:00,,0816.0,5.02,0.00,21.9,21.4,00.0,30.9,23.5,11.6,0000.0,0002.94,0000.54,0000.38
2021-12-25 14:25:00,,0816.1,5.00,0.00,21.9,21.3,00.0,30.9,23.4,11.7,0000.0,0002.67,0000.54,0000.38
2021-12-25 14:26:00,,0816.1,5.00,0.00,21.8,21.3,00.0,30.9,23.4,11.8,0000.0,0002.66,0000.54,0000.38
2021-12-25 14:27:00,,0816.1,4.99,0.00,21.8,21.2,00.0,30.9,23.4,11.8,0000.0,0002.68,0000.55,0000.39
2021-12-25 14:28:00,,0816.1,5.00,0.00,21.8,21.2,00.0,30.9,23.4,11.7,0000.0,0001.97,0000.55,0000.38
2021-12-25 14:29:00,,0816.1,5.01,0.00,21.8,21.1,00.0,30.9,23.4,11.7,0000.0,0000.86,0000.53,0000.37
2021-12-25 14:30:00,,0816.2,5.00,0.00,21.8,21.1,00.0,30.9,23.3,11.9,0000.0,0000.81,0000.51,0000.37
2021-12-25 14:31:00,,0816.1,5.01,0.00,21.7,21.1,00.0,30.9,23.3,11.8,0000.0,0000.94,0000.54,0000.37
2021-12-25 14:32:00,,0816.2,4.99,0.00,21.7,21.1,00.0,30.8,23.3,11.6,0000.0,0001.01,0000.55,0000.37
2021-12-25 14:33:00,,0816.3,5.00,0.00,21.7,21.0,00.0,30.8,23.3,11.7,0000.0,0001.04,0000.56,0000.38
2021-12-25 14:34:00,,0816.3,5.01,0.00,21.7,21.0,00.0,30.8,23.3,11.8,0000.0,0001.10,0000.57,0000.38
2021-12-25 14:35:00,,0816.3,4.99,0.00,21.7,20.9,00.0,30.8,23.3,11.7,0000.0,0001.10,0000.56,0000.39
2021-12-25 14:36:00,,0816.4,5.00,0.00,21.7,20.9,00.0,30.8,23.3,11.9,0000.0,0001.27,0000.53,0000.38
2021-12-25 14:37:00,,0816.3,5.01,0.00,21.6,20.9,00.0,30.8,23.2,12.0,0000.0,0002.37,0000.52,0000.38
2021-12-25 14:38:00,,0816.4,5.00,0.00,21.6,20.9,00.0,30.8,23.2,11.9,0000.0,0002.40,0000.53,0000.38
2021-12-25 14:39:00,,0816.4,5.00,0.00,21.6,20.9,00.0,30.7,23.2,12.0,0000.0,0002.36,0000.51,0000.37
2021-12-25 14:40:00,,0816.4,5.01,0.00,21.6,20.9,00.0,30.7,23.2,11.9,0000.0,0002.37,0000.52,0000.38
2021-12-25 14:41:00,,0816.3,4.99,0.00,21.6,21.0,00.0,30.7,23.2,11.8,0000.0,0002.37,0000.52,0000.37
2021-12-25 14:42:00,,0816.4,5.01,0.00,21.6,21.0,00.0,30.7,23.3,11.9,0000.0,0002.27,0000.49,0000.37
2021-12-25 14:43:00,,0816.4,4.99,0.00,21.6,20.9,00.0,30.7,23.2,12.0,0000.0,0002.11,0000.46,0000.36
2021-12-25 14:44:00,,0816.5,5.01,0.00,21.6,20.9,00.0,30.7,23.2,12.0,0000.0,0002.09,0000.45,0000.35
2021-12-25 14:45:00,,0816.5,5.00,0.00,21.6,20.9,00.0,30.7,23.2,12.1,0000.0,0001.99,0000.41,0000.34
2021-12-25 14:46:00,,0816.6,4.99,0.00,21.5,20.9,00.0,30.7,23.2,12.2,0000.0,0001.93,0000.39,0000.33
2021-12-25 14:47:00,,0816.6,5.00,0.00,21.6,20.8,00.0,30.7,23.2,12.2,0000.0,0001.95,0000.41,0000.33
2021-12-25 14:48:00,,0816.6,5.01,0.00,21.5,20.8,00.0,30.7,23.2,12.0,0000.0,0000.62,0000.41,0000.33
2021-12-25 14:49:00,,0816.8,5.00,0.00,21.5,20.7,00.0,30.6,23.1,12.0,0000.0,0000.54,0000.38,0000.32
2021-12-25 14:50:00,,0816.6,4.99,0.00,21.5,20.7,00.0,30.6,23.1,12.0,0000.0,0000.56,0000.39,0000.33
2021-12-25 14:51:00,,0816.8,5.00,0.00,21.5,20.7,00.0,30.6,23.0,12.2,0000.0,0000.63,0000.39,0000.32
2021-12-25 14:52:00,,0817.0,5.01,0.00,21.4,20.8,00.0,30.6,23.1,12.3,0000.0,0000.65,0000.40,0000.33
2021-12-25 14:53:00,,0816.9,4.99,0.00,21.5,21.7,00.0,30.6,23.3,12.4,0000.0,0000.65,0000.40,0000.33
2021-12-25 14:54:00,,0817.4,5.01,0.00,21.7,22.7,00.0,30.7,23.7,12.2,0000.0,0000.66,0000.40,0000.33
2021-12-25 14:55:00,,0817.1,4.99,0.00,21.9,23.0,00.0,30.7,23.9,12.3,0000.0,0000.69,0000.41,0000.33
2021-12-25 14:56:00,,0817.0,5.00,0.00,21.9,22.7,00.0,30.8,23.8,12.5,0000.0,0000.79,0000.44,0000.33
2021-12-25 14:57:00,,0816.9,5.00,0.00,21.9,22.4,00.0,30.8,23.8,12.6,0000.0,0000.80,0000.45,0000.32
2021-12-25 14:58:00,,0817.0,5.00,0.00,21.9,22.2,00.0,30.8,23.7,12.6,0000.0,0000.76,0000.44,0000.32
2021-12-25 14:59:00,,0816.9,5.00,0.00,21.9,22.0,00.0,30.8,23.7,12.5,0000.0,0000.80,0000.45,0000.33
